Location: Blazny
(46.0612°N, 84.4033°W)
Time: 09:41:18
(UTC-04:00)

ARIANE 6 FM1 Upper Stage - Pass Details

Date: 18 September 2024
Orbit: 564 x 594 km, 62.0° (Epoch: 03 October)

Event Time Altitude Azimuth Distance (km) Brightness Sun altitude
Rises 22:07:30 0° 216° (SW) 2,772 6.3 -24.8°
Reaches altitude 10° 22:09:43 10° 215° (SW) 1,883 5.4 -25.2°
Enters shadow 22:09:49 11° 215° (SW) 1,842 5.3 -25.2°
